Lid_Strength_Index
18 17 17 15 15 15 15 15 17 20 19 17 17 14 14 14 13 12 12 9 8 6 6 6 6 5 5 5 5 4 4 4 4 3 3 3 3 3
16 16 16 15 15 15 15 15 15 17 19 16 16 15 14 12 11 10 10 8 6 5 5 5 5 5 5 5 5 5 4 4 3 3 2 3 2 2
16 16 16 15 15 15 15 15 15 15 17 16 14 13 12 12 11 10 9 9 9 6 5 5 5 6 6 6 5 5 5 4 4 3 3 2 2 2
16 16 16 14 15 15 16 16 15 15 15 15 13 12 12 11 10 10 9 8 8 6 5 5 5 5 5 5 5 5 4 4 4 4 3 3 2 2
16 16 15 15 16 15 15 15 14 13 12 12 13 11 11 9 9 9 9 10 9 7 6 6 5 5 5 5 5 5 5 4 4 4 4 3 3 3
15 15 15 15 15 15 14 14 12 13 12 11 11 11 10 9 10 12 12 11 11 10 9 8 7 7 6 6 6 6 6 6 5 5 5 4 4 3
16 15 15 13 11 12 12 13 11 11 11 11 11 11 12 12 13 13 13 13 12 11 12 12 12 12 11 9 9 8 8 7 6 6 5 5 4 4
16 15 15 13 13 10 9 8 8 9 10 11 12 13 13 14 13 13 13 14 16 12 13 13 12 13 12 12 9 9 8 7 6 6 5 5 4 3
16 15 15 13 12 12 9 8 7 6 7 11 13 14 14 13 12 13 13 14 14 13 13 14 13 14 13 12 9 9 8 7 7 6 6 5 5 4
15 15 15 14 11 10 10 9 10 10 11 11 12 12 11 11 12 12 13 13 13 13 13 16 14 15 13 13 10 9 8 8 7 7 6 6 5 5
14 13 12 11 9 7 9 11 11 12 11 9 8 9 9 9 10 12 14 16 16 15 14 15 15 14 13 13 12 9 8 8 7 7 6 5 5 5
13 12 10 10 8 7 10 12 14 14 12 12 13 12 12 12 10 12 14 16 17 17 14 15 14 14 15 11 11 10 10 7 7 6 6 5 5 7
13 12 11 8 7 8 9 13 13 11 12 14 14 14 13 13 13 13 13 15 16 16 14 13 14 14 14 13 11 11 10 10 10 9 7 6 5 5
12 11 11 8 9 10 11 10 10 11 14 14 15 15 15 15 14 14 14 14 13 14 13 13 13 13 13 13 14 12 11 10 10 11 10 8 6 5
11 9 9 9 10 12 12 11 11 14 15 15 15 15 15 14 14 14 14 14 14 13 12 12 11 12 12 13 14 14 13 11 10 10 10 10 9 8
10 11 11 11 12 13 14 14 14 14 14 15 15 15 14 15 15 14 15 14 14 14 12 11 10 11 13 13 13 14 12 12 9 8 9 9 9 9
10 13 14 15 16 16 15 15 14 14 15 15 15 15 15 15 15 14 14 14 15 15 15 12 10 11 11 12 14 12 11 9 8 9 9 9 10 10
13 15 16 16 17 16 16 15 14 14 14 14 15 15 16 15 15 14 14 14 15 15 14 13 12 13 12 13 10 11 10 9 9 9 9 9 10 9
15 16 17 17 16 15 15 15 16 15 14 15 15 15 14 15 15 15 15 14 14 13 13 13 13 14 14 15 12 9 11 9 9 9 9 10 9 8
16 17 16 16 16 16 16 15 15 15 15 15 15 15 15 15 15 15 15 14 12 12 14 13 13 13 14 15 14 12 9 9 10 10 10 9 8 6
16 16 16 16 16 15 15 15 15 15 14 15 15 15 15 15 15 15 14 11 10 13 14 14 13 9 11 11 12 12 10 9 8 10 10 10 11 10
16 16 16 16 16 16 16 16 16 15 15 15 15 15 14 14 14 14 13 13 12 12 13 14 12 12 13 13 14 12 11 10 9 8 7 8 10 12
16 16 16 16 16 16 16 16 15 15 14 15 15 14 14 14 13 12 12 11 12 12 17 15 13 12 12 13 12 13 12 12 10 11 10 7 7 7